When you browse on this site, cookies collect data to enhance your experience and personalize the content and advertising you see.
Visit our Privacy Policy to learn more. By continuing to use the site, you agree to this use of cookies and data.
  • In Slovakia
  • List of Countries
  • For 7 days
  • Water Temperature
  • Satellite Maps
  • Weather Map
  • Weather Widgets
  • user-avatar
    Login

    Hourly Weather Ordino

    Today, 19 November, Monday

    Time Temperature Precipitation Wind Pressure Humidity
    00:00 +1°C° 0 mm 1 mps 626 mmHg 88%
    01:00 +1°C° 0 mm 1 mps 625 mmHg 87%
    02:00 +1°C° 0 mm 1 mps 625 mmHg 85%
    03:00 0°C° 0 mm 1 mps 625 mmHg 84%
    04:00 0°C° 0 mm 1 mps 624 mmHg 84%
    05:00 0°C° 0 mm 1 mps 624 mmHg 83%
    06:00 0°C° 0 mm 1 mps 623 mmHg 82%
    07:00 +1°C° 0 mm 1 mps 624 mmHg 80%
    08:00 +2°C° 0 mm 1 mps 624 mmHg 78%
    09:00 +4°C° 0 mm 1 mps 624 mmHg 75%
    10:00 +4°C° 0.1 mm 1 mps 624 mmHg 75%
    11:00 +5°C° 0.1 mm 1 mps 624 mmHg 74%
    12:00 +5°C° 0.1 mm 1 mps 624 mmHg 73%
    13:00 +5°C° 0.2 mm 1 mps 623 mmHg 75%
    14:00 +5°C° 0.2 mm 1 mps 623 mmHg 78%
    15:00 +4°C° 0.2 mm 1 mps 622 mmHg 80%
    16:00 +3°C° 0.2 mm 1 mps 622 mmHg 85%
    17:00 +2°C° 0.2 mm 1 mps 621 mmHg 89%
    18:00 +1°C° 0.2 mm 1 mps 621 mmHg 94%
    19:00 +1°C° 0.2 mm 1 mps 621 mmHg 94%
    20:00 +1°C° 0.2 mm 1 mps 621 mmHg 94%
    21:00 +1°C° 0.2 mm 1 mps 621 mmHg 94%
    22:00 +1°C° 0.3 mm 1 mps 621 mmHg 95%
    23:00 +1°C° 0.3 mm 1 mps 621 mmHg 95%

    Tomorrow, 20 November, Tuesday

    Time Temperature Precipitation Wind Pressure Humidity
    00:00 +1°C° 0.3 mm 1 mps 621 mmHg 95%
    01:00 +1°C° 0.1 mm 1 mps 621 mmHg 95%
    02:00 +1°C° 0.1 mm 1 mps 620 mmHg 95%
    03:00 +1°C° 0.1 mm 1 mps 620 mmHg 95%
    04:00 0°C° 0 mm 1 mps 620 mmHg 95%
    05:00 0°C° 0 mm 1 mps 620 mmHg 95%
    06:00 0°C° 0 mm 1 mps 620 mmHg 95%
    07:00 0°C° 0.1 mm 1 mps 620 mmHg 92%
    08:00 +1°C° 0.1 mm 1 mps 621 mmHg 88%
    09:00 +1°C° 0.1 mm 1 mps 621 mmHg 84%
    10:00 +1°C° 0.4 mm 2 mps 621 mmHg 85%
    11:00 +1°C° 0.4 mm 2 mps 621 mmHg 86%
    12:00 +2°C° 0.4 mm 2 mps 621 mmHg 87%
    13:00 +2°C° 0.1 mm 2 mps 621 mmHg 88%
    14:00 +2°C° 0.1 mm 2 mps 621 mmHg 89%
    15:00 +1°C° 0.1 mm 3 mps 621 mmHg 90%
    16:00 +2°C° 0.5 mm 2 mps 621 mmHg 92%
    17:00 +1°C° 0.5 mm 2 mps 621 mmHg 94%
    18:00 +1°C° 0.5 mm 2 mps 621 mmHg 96%
    19:00 +2°C° 0.6 mm 1 mps 622 mmHg 96%
    20:00 +1°C° 0.6 mm 1 mps 622 mmHg 96%
    21:00 +1°C° 0.6 mm 1 mps 622 mmHg 97%
    22:00 +1°C° 0 mm 1 mps 622 mmHg 96%
    23:00 0°C° 0 mm 1 mps 622 mmHg 96%

    Day after tomorrow, 21 November, Wednesday

    Time Temperature Precipitation Wind Pressure Humidity
    00:00 0°C° 0 mm 1 mps 622 mmHg 96%
    01:00 -1°C° 0 mm 1 mps 622 mmHg 93%
    02:00 -2°C° 0 mm 1 mps 622 mmHg 91%
    03:00 -3°C° 0 mm 1 mps 622 mmHg 89%
    04:00 -3°C° 0 mm 1 mps 623 mmHg 88%
    05:00 -3°C° 0 mm 1 mps 623 mmHg 86%
    06:00 -3°C° 0 mm 1 mps 623 mmHg 85%
    07:00 -1°C° 0 mm 1 mps 624 mmHg 84%
    08:00 0°C° 0 mm 1 mps 626 mmHg 82%
    09:00 +2°C° 0 mm 1 mps 627 mmHg 80%
    10:00 +3°C° 0 mm 1 mps 627 mmHg 80%
    11:00 +3°C° 0 mm 2 mps 628 mmHg 79%
    12:00 +4°C° 0 mm 2 mps 628 mmHg 78%
    13:00 +4°C° 0 mm 2 mps 629 mmHg 78%
    14:00 +4°C° 0 mm 2 mps 629 mmHg 78%
    15:00 +4°C° 0 mm 2 mps 629 mmHg 78%
    16:00 +3°C° 0 mm 1 mps 629 mmHg 82%
    17:00 +1°C° 0 mm 1 mps 628 mmHg 86%
    18:00 0°C° 0 mm 1 mps 628 mmHg 90%
    19:00 -1°C° 0 mm 1 mps 628 mmHg 88%
    20:00 -1°C° 0 mm 1 mps 629 mmHg 85%
    21:00 -1°C° 0 mm 1 mps 629 mmHg 83%
    22:00 -2°C° 0 mm 1 mps 629 mmHg 79%
    23:00 -2°C° 0 mm 1 mps 629 mmHg 74%

    22 November, Thursday

    Time Temperature Precipitation Wind Pressure Humidity
    00:00 -2°C° 0 mm 1 mps 629 mmHg 70%
    01:00 -2°C° 0 mm 1 mps 629 mmHg 70%
    02:00 -2°C° 0 mm 1 mps 629 mmHg 70%
    03:00 -2°C° 0 mm 1 mps 629 mmHg 70%
    04:00 -1°C° 0 mm 1 mps 630 mmHg 71%
    05:00 -1°C° 0 mm 1 mps 630 mmHg 72%
    06:00 -3°C° 0 mm 2 mps 630 mmHg 73%
    07:00 -1°C° 0 mm 2 mps 631 mmHg 72%
    08:00 +1°C° 0 mm 2 mps 632 mmHg 71%
    09:00 +3°C° 0 mm 2 mps 632 mmHg 70%
    10:00 +4°C° 0 mm 2 mps 633 mmHg 70%
    11:00 +5°C° 0 mm 2 mps 633 mmHg 69%
    12:00 +6°C° 0 mm 2 mps 633 mmHg 68%
    13:00 +5°C° 0 mm 2 mps 633 mmHg 70%
    14:00 +5°C° 0 mm 2 mps 633 mmHg 73%
    15:00 +5°C° 0 mm 1 mps 632 mmHg 75%
    16:00 +4°C° 0 mm 1 mps 632 mmHg 77%
    17:00 +2°C° 0 mm 1 mps 632 mmHg 79%
    18:00 +1°C° 0 mm 1 mps 631 mmHg 81%
    19:00 +1°C° 0 mm 1 mps 632 mmHg 80%
    20:00 +1°C° 0 mm 1 mps 632 mmHg 79%
    21:00 +1°C° 0 mm 1 mps 632 mmHg 78%
    22:00 +1°C° 0 mm 1 mps 632 mmHg 79%
    23:00 +1°C° 0 mm 1 mps 632 mmHg 79%

    23 November, Friday

    Time Temperature Precipitation Wind Pressure Humidity
    00:00 +1°C° 0 mm 1 mps 632 mmHg 80%
    01:00 +1°C° 0 mm 1 mps 632 mmHg 81%
    02:00 +1°C° 0 mm 1 mps 632 mmHg 81%
    03:00 +1°C° 0 mm 1 mps 632 mmHg 82%
    04:00 +1°C° 0 mm 1 mps 632 mmHg 81%
    05:00 +1°C° 0 mm 1 mps 632 mmHg 80%
    06:00 +1°C° 0 mm 1 mps 632 mmHg 79%
    07:00 +2°C° 0 mm 1 mps 632 mmHg 78%
    08:00 +3°C° 0 mm 1 mps 633 mmHg 76%
    09:00 +5°C° 0 mm 1 mps 634 mmHg 75%
    10:00 +5°C° 0.1 mm 1 mps 634 mmHg 74%
    11:00 +6°C° 0.1 mm 1 mps 634 mmHg 74%
    12:00 +7°C° 0.1 mm 1 mps 634 mmHg 73%
    13:00 +7°C° 0.1 mm 1 mps 633 mmHg 75%
    14:00 +6°C° 0.1 mm 1 mps 633 mmHg 77%
    15:00 +6°C° 0.1 mm 1 mps 632 mmHg 79%
    16:00 +5°C° 0.4 mm 1 mps 632 mmHg 82%
    17:00 +5°C° 0.4 mm 1 mps 632 mmHg 85%
    18:00 +4°C° 0.4 mm 1 mps 632 mmHg 88%
    19:00 +4°C° 0.5 mm 1 mps 632 mmHg 90%
    20:00 +4°C° 0.5 mm 1 mps 632 mmHg 91%
    21:00 +4°C° 0.5 mm 1 mps 632 mmHg 93%
    22:00 +4°C° 0.2 mm 1 mps 632 mmHg 93%
    23:00 +3°C° 0.2 mm 1 mps 632 mmHg 93%

    24 November, Saturday

    Time Temperature Precipitation Wind Pressure Humidity
    00:00 +3°C° 0.2 mm 1 mps 632 mmHg 94%
    01:00 +3°C° 0 mm 1 mps 631 mmHg 93%
    02:00 +2°C° 0 mm 1 mps 631 mmHg 93%
    03:00 +2°C° 0 mm 1 mps 631 mmHg 92%
    04:00 +1°C° 0 mm 1 mps 631 mmHg 91%
    05:00 +1°C° 0 mm 1 mps 631 mmHg 89%
    06:00 +1°C° 0 mm 1 mps 631 mmHg 88%
    07:00 +2°C° 0 mm 1 mps 632 mmHg 86%
    08:00 +3°C° 0 mm 1 mps 632 mmHg 84%
    09:00 +5°C° 0 mm 1 mps 633 mmHg 81%
    10:00 +5°C° 0 mm 1 mps 633 mmHg 80%
    11:00 +6°C° 0 mm 1 mps 633 mmHg 78%
    12:00 +7°C° 0 mm 1 mps 634 mmHg 77%
    13:00 +6°C° 0 mm 1 mps 633 mmHg 78%
    14:00 +6°C° 0 mm 1 mps 633 mmHg 79%
    15:00 +6°C° 0 mm 1 mps 633 mmHg 80%
    16:00 +4°C° 0 mm 1 mps 633 mmHg 83%
    17:00 +3°C° 0 mm 1 mps 632 mmHg 85%
    18:00 +1°C° 0 mm 0 mps 632 mmHg 88%
    19:00 +1°C° 0 mm 0 mps 632 mmHg 87%
    20:00 +1°C° 0 mm 1 mps 632 mmHg 87%
    21:00 +1°C° 0 mm 1 mps 632 mmHg 86%
    22:00 0°C° 0 mm 1 mps 632 mmHg 83%
    23:00 0°C° 0 mm 1 mps 632 mmHg 80%
    Show more